Probability
0 0 0 0 0 0 0 0 0 0 0 0 0 0 0 0 0 0 0 0 0 0 0 0 0 0 0 0 0 0 0 0 0 0 0 0 0 0 0 0 0 0 0
0 0 0 0 0 0 0 0 0 0 0 0 0 0 0 0 0 0 0 0 0 0 0 0 0 0 0 0 0 0 0 0 0 0 0 0 0 0 0 0 0 0 0
0 0 0 0 0 0 0 0 0 0 0 0 0 0 0 0 0 0 0 0 0 0 0 0 0 0 0 0 0 0 0 0 0 0 0 0 0 0 0 0 0 0 0
0 0 0 0 0 0 0 0 0 0 0 0 0 0 0 0 0 0 0 0 0 0 0 0 0 0 0 0 0 0 0 0 0 0 0 0 0 0 0 0 0 0 0
0 0 0 0 0 0 0 0 0 0 0 0 0 0 0 0 0 0 0 0 0 0 0 0 0 0 0 0 0 0 0 0 0 0 0 0 0 0 0 0 0 0 0
0 0 0 0 0 0 0 0 0 0 0 0 0 0 0 0 0 0 0 0 0 0 0 0 0 0 0 0 0 0 0 0 0 0 0 0 0 0 0 0 0 0 0
0 0 0 0 0 0 0 0 0 0 0 0 0 0 0 0 0 0 0 0 0 0 0 0 0 0 0 0 0 0 0 0 0 0 0 0 0 0 0 0 0 0 0
0 0 0 0 0 0 0 0 0 0 0 0 0 0 0 0 0 0 0 0 0 0 0 0 0 0 0 0 0 0 0 0 0 0 0 0 0 0 0 0 0 0 0
0 0 0 0 0 0 0 0 0 0 0 0 0 0 0 0 0 0 0 0 0 0 0 0 0 0 0 0 0 0 0 0 0 0 0 0 0 0 0 0 0 0 0
0 0 0 0 0 0 0 0 0 0 0 0 0 0 0 0 0 0 0 0 0 0 0 0 0 0 0 0 0 0 0 0 0 0 0 0 0 0 0 0 0 0 0
0 0 0 0 0 0 0 0 0 0 0 0 0 0 0 0 0 0 0 0 0 0 0 0 0 0 0 0 0 0 0 0 0 0 0 0 0 0 0 0 0 0 0
0 0 0 0 0 0 0 0 0 0 0 0 0 0 0 0 0 0 0 0 0 0 0 0 0 0 0 0 0 0 0 0 0 0 0 0 0 0 0 0 0 0 0
0 0 0 0 0 0 0 0 0 0 0 0 0 0 0 0 0 0 0 0 0 0 0 0 0 0 0 0 0 0 0 0 0 0 0 0 0 0 0 0 0 0 0
0 0 0 0 0 0 0 0 0 0 0 0 0 0 0 0 0 0 0 0 0 0 0 0 0 0 0 0 0 0 0 0 0 0 0 0 0 0 0 0 0 0 0
0 0 0 0 0 0 0 0 0 0 0 0 0 0 0 0 0 0 0 0 0 0 0 0 0 0 0 0 0 0 0 0 0 0 0 0 0 0 0 0 0 0 0
0 0 0 0 0 0 0 0 0 0 0 0 0 0 0 0 0 0 0 0 0 0 0 0 0 0 0 0 0 0 0 0 0 0 0 0 0 0 0 0 0 0 0
0 0 0 0 0 0 0 0 0 0 0 0 0 0 0 0 0 0 0 0 0 0 0 0 0 0 0 0 0 0 0 0 0 0 0 0 0 0 0 0 0 0 0
0 0 0 0 0 0 0 0 0 0 0 0 0 0 0 0 0 0 0 0 0 0 0 0 0 0 0 0 0 0 0 0 0 0 0 0 0 0 0 0 0 0 0
0 0 0 0 0 0 0 0 0 0 0 0 0 0 0 0 0 0 0 0 0 0 0 0 0 0 0 0 0 0 0 0 0 0 0 0 0 0 0 0 0 0 0
0 0 0 0 0 0 0 0 0 0 0 0 0 0 0 0 0 0 0 0 0 0 0 0 0 0 0 0 0 0 0 0 0 0 0 0 0 0 0 0 0 0 0
0 0 0 0 0 0 0 0 0 0 0 0 0 0 0 0 0 0 0 0 0 0 0 0 0 0 0 0 0 0 0 0 0 0 0 0 0 0 0 0 0 0 0
0 0 0 0 0 0 0 0 0 0 0 0 0 0 0 0 0 0 0 0 0 0 0 0 0 0 0 0 0 0 0 0 0 0 0 0 0 0 0 0 0 0 0
0 0 0 0 0 0 0 0 0 0 0 0 0 0 0 0 0 0 0 0 0 0 0 0 0 0 0 0 0 0 0 0 0 0 0 0 0 0 0 0 0 0 0
0 0 0 0 0 0 0 0 0 0 0 0 0 0 0 0 0 0 0 0 0 0 0 0 0 0 0 0 0 0 0 0 0 0 0 0 0 0 0 0 0 0 0
0 0 0 0 0 0 0 0 0 0 0 0 0 0 0 0 0 0 0 0 0 0 0 0 0 0 0 0 0 0 0 0 0 0 0 0 0 0 0 0 0 0 0
0 0 0 0 0 0 0 0 0 0 0 0 0 0 0 0 0 0 0 0 0 0 0 0 0 0 0 0 0 0 0 0 0 0 0 0 0 0 0 0 0 0 0
Height
5598 5580 5562 5544 5527 5510 5493 5476 5459 5443 5426 5409 5392 5375 5359 5344 5330 5318 5308 5301 5294 5289 5285 5282 5281 5281 5283 5287 5292 5297 5304 5310 5317 5322 5330 5340 5354 5369 5387 5406 5428 5450 5475
5592 5575 5557 5540 5523 5506 5489 5473 5457 5440 5424 5407 5391 5374 5358 5343 5330 5318 5308 5301 5294 5289 5285 5282 5281 5280 5282 5285 5289 5293 5299 5305 5311 5316 5323 5334 5346 5361 5378 5396 5416 5437 5461
5587 5570 5553 5536 5519 5503 5486 5471 5455 5439 5422 5406 5390 5374 5359 5344 5331 5318 5308 5300 5294 5288 5284 5281 5280 5279 5281 5283 5286 5290 5294 5300 5306 5311 5318 5328 5340 5354 5370 5387 5406 5426 5448
5582 5566 5549 5533 5516 5500 5484 5468 5453 5438 5422 5406 5391 5375 5360 5345 5331 5319 5308 5300 5293 5287 5283 5280 5279 5278 5279 5280 5283 5287 5291 5296 5301 5307 5313 5323 5334 5348 5363 5379 5397 5416 5437
5578 5562 5546 5530 5514 5498 5482 5467 5452 5437 5422 5407 5391 5376 5361 5346 5333 5320 5309 5300 5293 5287 5283 5280 5278 5277 5277 5279 5281 5284 5288 5292 5297 5303 5309 5319 5330 5343 5357 5373 5390 5409 5429
5574 5559 5543 5527 5512 5496 5481 5467 5452 5437 5422 5408 5393 5378 5364 5349 5336 5323 5312 5302 5294 5287 5283 5280 5278 5277 5277 5278 5280 5282 5285 5289 5294 5300 5306 5315 5326 5339 5353 5368 5384 5401 5420
5571 5556 5541 5525 5510 5495 5481 5467 5452 5438 5424 5410 5395 5381 5367 5353 5339 5327 5315 5305 5296 5289 5284 5281 5279 5278 5277 5278 5279 5281 5284 5287 5292 5298 5305 5313 5324 5337 5350 5365 5379 5394 5412
5568 5554 5539 5523 5509 5494 5480 5467 5453 5439 5426 5412 5398 5384 5370 5357 5344 5331 5319 5309 5300 5292 5287 5283 5280 5279 5278 5278 5279 5281 5284 5287 5291 5297 5303 5312 5323 5334 5347 5361 5375 5390 5406
5566 5552 5537 5522 5508 5494 5480 5467 5453 5440 5427 5414 5401 5387 5373 5360 5348 5336 5324 5313 5304 5296 5290 5286 5283 5281 5280 5279 5280 5282 5284 5287 5291 5296 5303 5312 5322 5333 5345 5359 5372 5386 5401
5565 5550 5536 5522 5508 5494 5480 5467 5453 5440 5428 5415 5402 5389 5377 5365 5353 5341 5329 5318 5309 5301 5295 5290 5286 5284 5282 5282 5282 5284 5286 5288 5292 5297 5304 5312 5322 5333 5345 5357 5369 5383 5397
5563 5549 5535 5521 5508 5494 5481 5468 5454 5441 5428 5416 5404 5392 5381 5369 5358 5346 5334 5324 5315 5307 5300 5295 5291 5288 5286 5285 5285 5286 5288 5290 5294 5299 5305 5313 5322 5333 5345 5356 5368 5380 5394
5562 5549 5535 5522 5508 5495 5482 5468 5455 5442 5430 5418 5407 5396 5385 5374 5363 5351 5340 5330 5321 5313 5306 5300 5296 5293 5291 5290 5289 5290 5291 5293 5297 5301 5307 5314 5323 5334 5345 5356 5367 5379 5391
5560 5547 5534 5521 5508 5496 5483 5470 5457 5445 5433 5422 5411 5400 5389 5378 5368 5357 5347 5336 5327 5319 5312 5306 5301 5298 5296 5295 5294 5294 5295 5298 5301 5305 5310 5317 5325 5335 5345 5356 5367 5378 5390
5559 5546 5533 5520 5507 5495 5483 5471 5460 5448 5437 5425 5414 5403 5392 5382 5372 5362 5352 5343 5334 5325 5318 5312 5307 5304 5301 5300 5300 5300 5301 5302 5305 5309 5313 5320 5327 5337 5346 5356 5367 5377 5389
5557 5544 5532 5519 5506 5494 5482 5472 5460 5449 5438 5427 5416 5406 5396 5385 5375 5365 5356 5348 5339 5331 5323 5317 5313 5309 5307 5305 5305 5305 5306 5307 5310 5313 5317 5323 5330 5338 5347 5357 5367 5377 5387
5556 5543 5531 5518 5505 5493 5481 5470 5459 5449 5439 5428 5417 5407 5397 5388 5378 5370 5361 5353 5345 5337 5330 5323 5318 5314 5312 5310 5310 5310 5311 5312 5314 5317 5321 5326 5332 5340 5348 5357 5367 5376 5386
5554 5542 5530 5518 5506 5494 5482 5470 5459 5449 5439 5429 5420 5410 5400 5391 5382 5374 5366 5358 5351 5343 5336 5329 5324 5319 5316 5315 5314 5314 5315 5316 5318 5321 5324 5329 5335 5342 5349 5358 5366 5375 5385
5552 5541 5529 5518 5506 5494 5483 5472 5462 5451 5441 5431 5422 5413 5403 5394 5386 5377 5370 5362 5355 5348 5342 5335 5329 5324 5321 5319 5318 5317 5318 5320 5321 5324 5327 5332 5337 5343 5350 5358 5365 5374 5383
5551 5540 5529 5517 5506 5495 5483 5472 5462 5452 5442 5433 5423 5414 5406 5397 5389 5381 5373 5366 5359 5353 5347 5340 5334 5329 5324 5322 5320 5320 5321 5322 5324 5326 5329 5333 5338 5344 5350 5357 5365 5372 5381
5548 5538 5527 5517 5506 5494 5483 5472 5462 5452 5443 5434 5425 5416 5408 5400 5392 5384 5376 5369 5363 5357 5351 5345 5339 5333 5328 5324 5322 5321 5322 5323 5325 5328 5331 5334 5339 5344 5350 5356 5363 5371 5379
5546 5536 5526 5515 5505 5494 5483 5472 5462 5452 5444 5435 5427 5419 5410 5402 5394 5386 5379 5372 5366 5359 5353 5348 5342 5336 5331 5327 5323 5322 5321 5322 5324 5327 5330 5334 5338 5343 5348 5354 5361 5368 5376
5543 5533 5523 5514 5503 5493 5482 5471 5461 5452 5443 5435 5427 5419 5411 5403 5396 5388 5381 5374 5368 5362 5356 5350 5344 5339 5334 5329 5324 5321 5320 5320 5322 5325 5328 5332 5336 5341 5346 5351 5358 5365 5372
5539 5530 5521 5511 5502 5491 5481 5471 5461 5451 5443 5435 5427 5419 5411 5404 5397 5390 5382 5376 5369 5363 5357 5351 5346 5340 5335 5329 5325 5321 5318 5317 5318 5321 5324 5328 5333 5337 5342 5348 5354 5360 5367
5535 5526 5518 5509 5499 5490 5480 5470 5460 5450 5442 5434 5426 5419 5412 5404 5397 5390 5384 5377 5370 5364 5358 5352 5346 5341 5335 5329 5324 5320 5316 5313 5313 5315 5318 5323 5327 5333 5338 5344 5349 5355 5362
5531 5522 5514 5506 5497 5488 5478 5468 5458 5449 5441 5433 5426 5419 5412 5405 5398 5391 5384 5377 5371 5364 5358 5352 5346 5340 5335 5329 5323 5318 5313 5310 5308 5309 5311 5315 5321 5326 5332 5338 5344 5351 5357
5526 5518 5510 5502 5494 5485 5476 5467 5457 5448 5440 5432 5425 5418 5411 5404 5398 5391 5384 5377 5371 5364 5358 5352 5346 5340 5334 5327 5321 5315 5310 5306 5303 5303 5304 5307 5312 5318 5325 5331 5338 5345 5352
Wind_Speed
73 74 74 73 70 69 67 66 65 65 65 65 64 63 59 54 46 37 30 26 21 16 12 8 7 10 17 23 29 33 37 40 42 46 50 57 65 75 85 94 102 109 114
72 73 73 71 69 68 66 65 64 64 64 64 63 62 60 54 47 39 31 25 21 16 12 8 7 10 14 19 24 29 33 36 39 42 47 52 60 69 77 86 94 102 110
71 72 71 70 68 67 65 63 63 63 63 63 62 61 60 56 50 42 34 27 21 17 13 9 8 10 13 17 21 25 29 33 36 39 44 49 55 63 71 80 88 96 104
70 71 70 69 67 66 64 63 62 62 62 61 62 61 60 57 52 45 37 30 23 18 14 10 8 9 12 15 19 22 26 29 33 37 41 46 52 59 65 73 82 91 99
69 70 70 68 67 65 63 62 61 61 61 60 60 60 59 57 54 48 41 33 26 20 15 10 7 7 10 13 16 19 22 26 30 34 39 44 49 55 61 68 77 86 94
68 69 69 67 66 64 63 61 60 59 59 59 59 59 58 56 53 50 44 36 28 21 15 10 6 5 7 10 13 16 19 23 28 32 37 42 47 52 58 63 71 81 89
68 68 68 67 65 64 62 60 59 58 58 58 57 57 57 56 53 50 45 38 30 23 17 11 7 4 5 8 11 14 17 20 25 30 34 40 45 50 55 60 67 75 84
67 68 67 66 65 63 61 60 59 58 57 56 56 56 56 55 54 51 47 41 33 26 19 13 9 5 3 5 9 12 15 19 24 28 33 38 43 48 53 57 62 70 78
66 67 67 65 64 62 60 59 58 57 56 55 55 54 55 55 53 51 47 42 35 29 22 16 11 7 2 2 6 10 13 17 22 26 31 37 41 46 51 54 58 66 74
66 66 67 65 63 61 60 58 57 56 56 55 54 53 53 53 52 51 48 44 37 31 24 19 14 10 5 2 4 7 11 16 20 25 30 35 40 45 49 51 54 60 67
65 66 66 65 62 61 59 57 56 55 55 54 53 52 51 51 51 50 48 44 39 32 26 20 15 12 8 4 4 5 9 14 19 24 29 35 39 43 47 49 50 54 60
64 65 65 65 62 60 58 56 55 54 53 52 51 50 49 49 49 49 47 44 39 34 28 21 16 13 9 7 5 5 8 13 17 22 28 34 39 43 45 47 48 50 55
63 64 64 64 63 60 57 55 54 53 52 51 49 48 48 47 47 46 46 44 40 35 29 23 17 13 10 8 7 7 8 11 16 21 27 33 38 41 44 45 46 48 51
62 63 63 63 63 60 57 54 53 51 50 49 49 48 47 46 45 45 45 43 41 36 30 25 19 14 11 8 8 7 8 10 14 19 25 31 36 39 42 43 44 46 48
61 61 62 62 62 60 58 54 52 51 49 48 48 47 46 45 44 44 44 43 41 39 33 27 21 16 11 8 7 7 8 10 13 18 24 30 34 38 40 42 43 44 46
60 60 61 61 61 59 56 54 52 50 49 48 47 47 45 44 43 42 41 41 40 39 36 30 23 17 11 8 6 6 8 10 12 17 23 28 33 36 38 40 42 44 46
59 59 59 60 60 58 55 52 51 50 49 47 46 45 44 43 42 40 39 39 39 38 36 33 27 20 12 8 5 5 7 9 12 16 21 27 32 35 37 39 41 44 46
58 58 58 58 59 58 55 52 49 47 46 46 45 44 43 42 40 39 38 37 37 36 36 33 29 24 16 8 4 4 6 9 12 16 20 25 30 33 36 38 40 42 45
57 56 57 57 58 57 55 52 49 46 45 44 43 43 42 41 40 38 36 35 34 34 34 34 32 27 20 12 5 2 6 9 12 16 19 24 28 31 34 36 38 41 43
56 55 55 56 56 56 55 52 49 46 43 42 41 41 40 40 39 37 36 34 33 32 32 32 32 30 24 17 9 1 5 9 13 16 19 23 26 30 33 35 37 40 42
54 53 53 54 55 55 54 52 49 45 43 41 40 39 39 38 38 37 35 33 32 31 31 31 31 30 28 22 14 5 3 9 14 17 19 22 25 28 31 34 36 38 41
53 51 51 52 53 54 53 52 49 45 42 40 39 39 38 37 37 36 35 33 31 30 30 30 30 30 29 27 21 12 4 8 14 19 21 23 25 28 30 33 35 37 40
51 50 49 50 51 52 52 51 49 45 41 39 38 38 37 36 36 35 34 33 31 30 30 30 30 30 30 29 26 19 10 6 13 19 24 26 27 28 30 32 34 36 39
49 48 47 48 49 50 51 50 48 45 41 39 37 36 36 35 35 35 34 33 32 31 30 30 30 30 30 30 28 24 16 8 9 18 24 28 30 31 32 32 33 35 38
47 45 45 46 47 49 49 49 48 45 41 38 37 35 35 35 34 34 34 33 32 31 31 30 30 31 31 31 30 27 21 13 6 13 22 28 32 34 35 35 35 35 37
45 43 43 44 45 47 48 48 47 44 41 38 36 34 34 34 33 33 33 33 32 32 31 31 31 31 32 32 31 29 24 18 10 8 16 26 32 35 37 37 37 37 38
Wind_Direction
343 343 344 344 345 346 347 348 349 351 352 353 355 356 357 356 355 351 347 347 347 344 336 315 270 235 223 220 220 221 222 222 223 226 224 217 213 211 210 210 209 207 205
344 345 346 346 347 348 349 350 351 352 354 355 356 358 359 359 358 355 350 346 343 338 328 307 271 239 226 221 220 221 222 221 222 224 223 217 212 210 209 208 208 207 205
346 346 347 348 348 349 350 351 353 354 355 356 358 359 0 1 2 360 355 350 343 337 328 309 277 247 231 223 221 221 221 220 221 221 221 216 210 207 207 207 207 206 205
347 348 348 349 350 351 352 353 354 355 357 358 359 1 2 3 4 3 0 356 349 341 332 317 287 253 235 226 222 220 219 219 219 219 218 214 208 205 204 204 205 205 204
348 349 349 350 351 352 353 354 355 356 358 359 1 2 3 4 5 6 4 0 354 348 340 326 300 264 238 225 219 218 218 217 216 215 214 211 206 202 201 202 203 203 203
349 350 350 351 352 353 354 355 356 358 359 0 2 3 5 6 6 7 7 4 1 356 349 339 317 276 240 223 216 215 215 214 211 211 210 207 203 199 199 199 200 202 202
350 350 351 352 353 354 354 356 357 359 360 1 3 4 6 7 8 8 8 8 6 4 0 353 338 298 243 224 216 213 211 209 207 207 206 204 200 197 196 197 198 200 202
350 351 352 353 354 354 355 356 358 359 1 2 3 5 7 8 9 10 10 10 11 11 9 7 358 340 265 221 213 211 207 204 203 202 202 200 196 193 193 194 196 199 201
351 352 353 353 354 355 355 356 358 360 1 3 5 6 8 9 10 11 12 13 14 15 15 16 15 13 360 215 204 201 200 199 198 198 198 196 193 190 190 191 195 198 200
351 352 353 354 354 355 356 356 358 360 1 3 5 7 8 9 10 12 13 14 15 16 17 20 23 27 35 86 174 189 193 193 193 193 193 192 189 187 187 189 192 196 198
351 352 353 354 355 355 356 357 358 360 1 3 4 7 8 10 11 12 14 16 17 17 19 22 26 31 40 67 126 164 180 184 186 188 189 188 186 184 185 186 190 194 197
350 352 353 354 355 355 356 357 359 0 1 3 4 6 8 10 11 13 15 16 17 19 20 23 28 34 45 65 96 132 163 175 179 183 185 185 184 182 182 185 187 190 193
350 351 352 353 354 355 357 358 359 0 1 3 3 5 7 10 12 14 16 17 18 19 22 24 27 34 46 63 86 113 146 164 173 178 182 182 182 181 181 183 186 188 191
349 350 352 353 354 355 356 358 359 0 1 2 4 5 7 9 12 14 17 18 19 20 22 25 28 34 45 62 83 108 132 153 166 175 179 181 181 181 181 182 184 185 187
348 350 351 352 353 354 355 357 358 360 1 3 4 6 7 9 11 14 16 18 20 21 22 24 27 32 43 60 83 104 127 147 162 173 178 180 180 180 181 182 183 184 185
347 349 350 351 353 354 354 355 357 359 1 2 4 5 7 8 11 13 15 17 19 21 22 23 25 29 38 55 80 110 131 147 161 173 178 179 180 180 181 183 184 184 184
346 348 349 351 352 353 354 355 356 357 359 1 3 5 7 8 9 11 14 16 19 21 22 23 24 26 33 49 76 113 142 154 164 171 177 179 180 181 182 184 185 185 185
345 347 348 350 351 352 354 355 356 357 358 360 2 4 6 7 9 10 12 14 17 19 21 22 24 25 29 37 67 121 154 164 169 174 178 181 182 183 185 186 187 188 188
344 345 347 348 350 351 353 354 355 356 358 359 0 2 4 6 8 9 10 13 15 17 19 21 22 24 25 27 40 132 170 177 178 180 182 184 185 186 187 188 189 190 190
342 344 345 347 348 350 352 353 354 356 357 358 360 1 3 4 6 8 9 10 12 14 16 18 20 22 23 22 23 46 186 190 189 188 187 188 189 189 190 191 192 193 193
341 342 344 345 347 349 350 352 353 355 356 357 359 0 2 3 5 7 8 9 10 11 13 15 17 19 20 20 16 4 224 204 199 197 195 193 193 193 194 194 195 196 196
339 341 342 344 346 347 349 351 352 353 355 356 357 359 1 2 4 5 6 7 8 9 10 12 14 15 16 16 15 4 307 225 210 205 202 199 197 196 196 197 198 198 199
337 339 341 342 344 346 348 350 351 352 353 355 356 358 359 1 2 4 5 6 6 7 8 8 9 10 11 11 11 8 351 263 221 212 208 204 202 200 199 199 199 200 201
335 337 339 341 343 345 347 349 350 352 352 353 355 357 358 360 1 2 3 4 5 5 5 6 6 6 7 7 7 5 359 330 240 219 212 208 206 204 202 201 200 200 201
333 335 337 339 341 343 346 348 349 350 351 352 353 355 357 358 359 0 2 3 3 3 3 3 3 3 3 3 3 2 359 348 295 230 216 211 208 206 205 203 202 201 201
331 333 335 337 339 342 344 346 348 349 350 351 352 354 355 356 358 359 0 1 1 2 2 1 1 0 360 360 0 0 358 353 332 260 223 213 209 207 205 204 203 202 201